This is the latest recevied weather packets stored in our database for station/object K8FJG-13. If no packets are shown the sender has not sent any weather packets the latest 10 day(s).
| Time | Temp. | Humidity | Pressure | Rain* | Wind** | Luminosity | Snow |
|---|---|---|---|---|---|---|---|
| 1787372285 | 19.44° C | 75% | 971.9 hPa | - | - | - | - |
| 1787371682 | 19.44° C | 76% | 971.9 hPa | - | - | - | - |
| 1787371079 | 19.44° C | 77% | 972 hPa | - | - | - | - |
| 1787370476 | 19.44° C | 78% | 972.2 hPa | - | - | - | - |
| 1787369873 | 19.44° C | 76% | 972.2 hPa | - | - | - | - |
| 1787369269 | 20° C | 76% | 972.2 hPa | - | - | - | - |
| 1787368666 | 20° C | 76% | 972.3 hPa | - | - | - | - |
| 1787368063 | 20° C | 76% | 972.4 hPa | - | - | - | - |
| 1787367460 | 20° C | 76% | 972.3 hPa | - | - | - | - |
| 1787366857 | 20° C | 76% | 972.3 hPa | - | - | - | - |
| 1787366253 | 20° C | 75% | 972.4 hPa | - | - | - | - |
| 1787365650 | 20.56° C | 76% | 972.4 hPa | - | - | - | - |
| 1787365047 | 20.56° C | 76% | 972.5 hPa | - | - | - | - |
| 1787364444 | 20.56° C | 76% | 972.6 hPa | - | - | - | - |
| 1787363841 | 20.56° C | 76% | 972.6 hPa | - | - | - | - |
| 1787363238 | 20.56° C | 75% | 972.6 hPa | - | - | - | - |
| 1787362634 | 20° C | 75% | 972.5 hPa | - | - | - | - |
| 1787362031 | 19.44° C | 83% | 972.5 hPa | - | - | - | - |
| 1787361428 | 18.89° C | 84% | 972.6 hPa | - | - | - | - |
| 1787360825 | 19.44° C | 85% | 972.5 hPa | - | - | - | - |
| 1787360222 | 19.44° C | 84% | 972.4 hPa | - | - | - | - |
| 1787359619 | 20° C | 82% | 972.5 hPa | - | - | - | - |
| 1787359015 | 20° C | 80% | 972.3 hPa | - | - | - | - |
| 1787358412 | 20.56° C | 82% | 972.3 hPa | - | - | - | - |
| 1787357809 | 21.11° C | 78% | 972.1 hPa | - | - | - | - |
* Rain since midnight (hover to see other rain measurements)
** Current wind speed in m/s (hover to see current wind gust speed)